TimeEDT,TemperatureF,Dew PointF,Humidity,Sea Level PressureIn,VisibilityMPH,Wind Direction,Wind SpeedMPH,Gust SpeedMPH,PrecipitationIn,Events,Conditions,WindDirDegrees,DateUTC
12:53 AM,45.0,28.0,52,29.85,10.0,West,4.6,-,N/A,,Overcast,270,2012-11-02 04:53:00
1:53 AM,44.1,28.0,53,29.83,10.0,Calm,Calm,-,N/A,,Overcast,0,2012-11-02 05:53:00
2:53 AM,44.1,30.0,58,29.84,10.0,North,6.9,-,N/A,,Overcast,10,2012-11-02 06:53:00
3:53 AM,41.0,27.0,57,29.85,10.0,North,6.9,-,N/A,,Mostly Cloudy,10,2012-11-02 07:53:00
4:53 AM,39.0,27.0,62,29.86,10.0,North,4.6,-,N/A,,Mostly Cloudy,360,2012-11-02 08:53:00
5:53 AM,39.0,27.0,62,29.87,10.0,North,6.9,-,N/A,,Mostly Cloudy,360,2012-11-02 09:53:00
6:53 AM,39.0,27.0,62,29.89,10.0,North,5.8,-,N/A,,Overcast,350,2012-11-02 10:53:00
7:53 AM,37.9,27.0,65,29.91,10.0,Calm,Calm,-,N/A,,Clear,0,2012-11-02 11:53:00
8:53 AM,37.9,28.0,68,29.94,10.0,Calm,Calm,-,N/A,,Clear,0,2012-11-02 12:53:00
9:53 AM,41.0,28.9,62,29.97,10.0,NNW,9.2,-,N/A,,Clear,330,2012-11-02 13:53:00
10:53 AM,44.1,30.0,58,29.99,10.0,NW,9.2,-,N/A,,Clear,310,2012-11-02 14:53:00
11:53 AM,44.1,30.0,58,30.00,10.0,NNW,9.2,19.6,N/A,,Clear,340,2012-11-02 15:53:00
12:53 PM,46.0,28.9,51,30.01,10.0,NNW,11.5,-,N/A,,Clear,340,2012-11-02 16:53:00
1:53 PM,46.9,28.9,50,30.00,10.0,NW,12.7,20.7,N/A,,Clear,310,2012-11-02 17:53:00
2:53 PM,48.0,28.9,48,30.01,10.0,NW,9.2,16.1,N/A,,Scattered Clouds,320,2012-11-02 18:53:00
3:53 PM,48.9,30.0,48,30.01,10.0,NNW,9.2,-,N/A,,Scattered Clouds,330,2012-11-02 19:53:00
4:53 PM,48.0,30.0,50,30.02,10.0,NNW,9.2,19.6,N/A,,Clear,330,2012-11-02 20:53:00
5:53 PM,46.9,30.9,54,30.04,10.0,NNW,9.2,-,N/A,,Partly Cloudy,330,2012-11-02 21:53:00
6:53 PM,43.0,30.9,62,30.05,10.0,North,8.1,-,N/A,,Clear,350,2012-11-02 22:53:00
7:53 PM,41.0,30.9,67,30.07,10.0,North,8.1,-,N/A,,Clear,360,2012-11-02 23:53:00
8:53 PM,39.0,30.0,70,30.06,10.0,NNE,5.8,-,N/A,,Clear,30,2012-11-03 00:53:00
9:53 PM,43.0,30.9,62,30.08,10.0,North,6.9,-,N/A,,Overcast,10,2012-11-03 01:53:00
10:53 PM,41.0,30.9,67,30.09,10.0,WNW,3.5,-,N/A,,Overcast,300,2012-11-03 02:53:00
11:53 PM,41.0,30.9,67,30.09,10.0,Calm,Calm,-,N/A,,Overcast,0,2012-11-03 03:53:00